Volver al catálogo

SPACEMOBILE-SSR03 DEB

ActivoVLEO
NORAD 62371·DEBRIS·🇺🇸 United States

Lanzado Sep 12, 2024 desde Cape Canaveral Space Force Station

Loading…

Próximos Pases (próximas 24 horas)

TLE

ActualizadoSource: Space-Track

Época: Sep 14, 2026, 19:17 UTC

1 62371U 24163H   26257.80377210  .00020794  00000-0  46180-3 0  9999
2 62371  52.9689 205.6522 0009465  82.4070 277.8009 15.43646306105712

Sigue SPACEMOBILE-SSR03 DEB en tiempo real con AllMySat

Download on the App Store